Location: Cortada Guamacho
(10.5667°N, 67.0833°W)
Time: 04:36:43
(UTC+00:00)

SWIFT - Pass Details

Date: 06 July 2022
Orbit: 539 x 553 km, 20.6° (Epoch: 13 August)

Event Time Altitude Azimuth Distance (km) Brightness Sun altitude
Rises 23:15:07 0° 256° (WSW) 2,709 6.8 -5.4°
Reaches altitude 10° 23:17:25 10° 258° (WSW) 1,815 5.9 -5.9°
Maximum altitude 23:21:37 71° 342° (NNW) 580 2.6 -6.9°
Drops below altitude 10° 23:25:49 10° 66° (ENE) 1,810 4.6 -7.8°
Enters shadow 23:27:50 - 69° (ENE) 2,593 5.3 -8.3°
